"Pseudo-MPEC" for CC3P852

Created 2024 Oct 25 6:31:14 UT using Find_Orb

Click here for an explanation of pseudo-MPECs

 
 Astrometry: 
     CC3P852*1C2024 10 23.27717302 15 34.607+12 50 49.70   ~AND2 20.38GVNEOCPG96
     CC3P852 1C2024 10 23.28275102 15 37.609+12 50 49.16   ~AND2 20.87GVNEOCPG96
     CC3P852 1C2024 10 23.28834302 15 40.640+12 50 48.95   ~AND2 20.79GVNEOCPG96
     CC3P852 1C2024 10 23.29391902 15 43.603+12 50 48.55   ~AND2 20.91GVNEOCPG96
     CC3P852 1C2024 10 24.30633402 24 55.868+12 48 16.78   ~AO7l 20.65GVNEOCPG96
     CC3P852 1C2024 10 24.30699002 24 56.171+12 48 16.78   ~AO7l 20.59GVNEOCPG96
     CC3P852 1C2024 10 24.30764502 24 56.437+12 48 16.24   ~AO7l 20.65GVNEOCPG96
     CC3P852 1C2024 10 24.30830102 24 56.783+12 48 15.84   ~AO7l 20.73GVNEOCPG96

Station data:
(G96) Mt. Lemmon Survey  (N32.442729 W110.788720)  US/Arizona.  Observer E.
   J. Christensen. 1.5-m reflector + 10K CCD.

Orbital elements:  CC3P852
   Perihelion 2024 Sep 24.93439 +/- 5.74 TT = 22:25:31 (JD 2460578.43439)
Epoch 2024 Oct 24.0 TT = JDT 2460607.5   Earth MOID: 0.0153   Ma: 0.0910
M   9.20015300 +/- 4.8              (J2000 ecliptic)             AutoNEOCP
n   0.31653056 +/- 0.107            Peri.  147.38801 +/- 7
a   2.13235222 +/- 0.481            Node   209.44867 +/- 0.048
e   0.5337195 +/- 0.0898            Incl.    2.63666 +/- 0.55
P   3.11378                H 26.37  G  0.15   U 11.2
q 0.99427406 +/- 0.0353    Q 3.27043038 +/- 0.929
From 8 observations 2024 Oct. 23-24 (24.7 hr); mean residual 0".22
Residuals in arcseconds: 
241023 G96  .05-  .13-    241023 G96  .16-  .24+    241024 G96  .40-  .12-    
241023 G96  .07-  .20-    241024 G96  .05+  .21+    241024 G96  .27+  .41-    
241023 G96  .29+  .10+    241024 G96  .09+  .31+    

Ephemerides (geocentric):
Date (UTC) HH   RA             Dec           delta  r     elong  mag " sig PA
---- --------  ------------   ------------  ------ ------ -----  --- --------
2024 10 25 07  02 32 40.096   +12 45 50.03  .07018 1.0638 171.8 21.3  241  94
2024 10 25 08  02 32 58.346   +12 45 41.39  .07038 1.0640 171.8 21.3  256  93
2024 10 25 09  02 33 16.491   +12 45 32.73  .07058 1.0642 171.8 21.3  270  93
2024 10 25 10  02 33 34.529   +12 45 24.03  .07078 1.0644 171.7 21.3  285  93
2024 10 25 11  02 33 52.462   +12 45 15.30  .07098 1.0646 171.7 21.3  299  93
2024 10 25 12  02 34 10.291   +12 45 06.54  .07118 1.0647 171.7 21.3  315  93
2024 10 25 13  02 34 28.017   +12 44 57.75  .07138 1.0649 171.7 21.3  330  93
2024 10 25 14  02 34 45.639   +12 44 48.93  .07158 1.0651 171.6 21.3  346  93
2024 10 25 15  02 35 03.160   +12 44 40.08  .07178 1.0653 171.6 21.3  362  93
2024 10 25 16  02 35 20.580   +12 44 31.21  .07198 1.0655 171.6 21.4  378  93
2024 10 25 17  02 35 37.899   +12 44 22.31  .07218 1.0657 171.5 21.4  394  93
2024 10 25 18  02 35 55.118   +12 44 13.39  .07238 1.0658 171.5 21.4  411  93
2024 10 25 19  02 36 12.238   +12 44 04.44  .07258 1.0660 171.5 21.4  428  93
2024 10 25 20  02 36 29.260   +12 43 55.47  .07278 1.0662 171.4 21.4  445  93
2024 10 25 21  02 36 46.185   +12 43 46.48  .07298 1.0664 171.4 21.4  462  93
2024 10 25 22  02 37 03.012   +12 43 37.47  .07318 1.0666 171.4 21.4  480  93
2024 10 25 23  02 37 19.743   +12 43 28.44  .07339 1.0668 171.4 21.4  498  93
2024 10 26 00  02 37 36.379   +12 43 19.39  .07359 1.0669 171.3 21.4  516  93
2024 10 26 01  02 37 52.920   +12 43 10.32  .07379 1.0671 171.3 21.4  534  93
2024 10 26 02  02 38 09.367   +12 43 01.23  .07399 1.0673 171.3 21.4  552  93
2024 10 26 03  02 38 25.721   +12 42 52.13  .07420 1.0675 171.2 21.4  571  93
2024 10 26 04  02 38 41.982   +12 42 43.01  .07440 1.0677 171.2 21.4  589  93
2024 10 26 05  02 38 58.150   +12 42 33.87  .07460 1.0679 171.2 21.5  608  93
2024 10 26 06  02 39 14.228   +12 42 24.73  .07480 1.0680 171.2 21.5  628  93
2024 10 26 07  02 39 30.214   +12 42 15.57  .07501 1.0682 171.1 21.5  647  93
2024 10 26 08  02 39 46.111   +12 42 06.39  .07521 1.0684 171.1 21.5  666  93
2024 10 26 09  02 40 01.918   +12 41 57.21  .07541 1.0686 171.1 21.5  686  93
2024 10 26 10  02 40 17.636   +12 41 48.01  .07562 1.0688 171.1 21.5  706  93
2024 10 26 11  02 40 33.266   +12 41 38.81  .07582 1.0690 171.0 21.5  726  93
2024 10 26 12  02 40 48.809   +12 41 29.59  .07603 1.0692 171.0 21.5  746  93
2024 10 26 13  02 41 04.264   +12 41 20.36  .07623 1.0693 171.0 21.5  766  93
2024 10 26 14  02 41 19.634   +12 41 11.13  .07643 1.0695 171.0 21.5  787  93
2024 10 26 15  02 41 34.917   +12 41 01.89  .07664 1.0697 171.0 21.5  808  93
2024 10 26 16  02 41 50.116   +12 40 52.64  .07684 1.0699 170.9 21.5  828  93
2024 10 26 17  02 42 05.230   +12 40 43.39  .07705 1.0701 170.9 21.5  849  93
2024 10 26 18  02 42 20.260   +12 40 34.13  .07725 1.0703 170.9 21.5  870  93
2024 10 26 19  02 42 35.207   +12 40 24.87  .07746 1.0705 170.9 21.6  892  93
2024 10 26 20  02 42 50.071   +12 40 15.60  .07766 1.0707 170.8 21.6  913  93
2024 10 26 21  02 43 04.853   +12 40 06.33  .07787 1.0708 170.8 21.6  935  93
2024 10 26 22  02 43 19.554   +12 39 57.06  .07807 1.0710 170.8 21.6  956  93
2024 10 26 23  02 43 34.173   +12 39 47.78  .07828 1.0712 170.8 21.6  978  93
2024 10 27 00  02 43 48.713   +12 39 38.50  .07849 1.0714 170.8 21.6 1000  93
2024 10 27 01  02 44 03.172   +12 39 29.22  .07869 1.0716 170.7 21.6 1022  93
2024 10 27 02  02 44 17.552   +12 39 19.94  .07890 1.0718 170.7 21.6 1044  93
2024 10 27 03  02 44 31.853   +12 39 10.66  .07910 1.0720 170.7 21.6 1067  93
2024 10 27 04  02 44 46.077   +12 39 01.38  .07931 1.0722 170.7 21.6 1089  93
2024 10 27 05  02 45 00.222   +12 38 52.10  .07952 1.0724 170.7 21.6 1111  93
2024 10 27 06  02 45 14.291   +12 38 42.82  .07972 1.0725 170.6 21.6 1134  93